Weather History for KBPC - April, 2013

Change the Weather History Date:

Sunday, April 21, 2013

  Actual Average (KBGD) Record (KBGD)
Temperature  
Mean Temperature 55 °F 60 °F  
Max Temperature 75 °F 74 °F 92 °F (1960)
Min Temperature 35 °F 47 °F 31 °F (1982)
Degree Days  
Heating Degree Days 10 6  
Month to date heating degree days 180  
Since 1 July heating degree days 3657  
Cooling Degree Days 0 2  
Month to date cooling degree days 19  
Year to date cooling degree days 26  
Growing Degree Days 5 (Base 50)    
Moisture  
Dew Point 32 °F    
Average Humidity 39    
Maximum Humidity 75    
Minimum Humidity 20    
Precipitation  
Precipitation 0.00 in 0.05 in 0.15 in (2007)
Month to date precipitation 1.19  
Year to date precipitation 3.81  
Snow  
Snow 0.00 in - T in (1959)
Month to date snowfall  
Since 1 July snowfall  
Snow Depth -    
Sea Level Pressure  
Sea Level Pressure 30.01 in    
Wind  
Wind Speed 12 mph (SSE)    
Max Wind Speed 30 mph    
Max Gust Speed 37 mph    
Visibility 10 miles    
Events      
T = Trace of Precipitation, MM = Missing Value Source: NWS Daily Summary

Daily Weather History Graph

Daily Weather History Graph

Search for Another Location

Airport or City:

Trip Planner

Search our weather history database for the weather conditions in past years. The results will help you decide how hot, cold, wet, or windy it might be!

Date:

Astronomy

Apr. 21, 2013 Rise Set
Actual Time 7:03 AM CDT 8:22 PM CDT
Civil Twilight 6:36 AM CDT 8:49 PM CDT
Nautical Twilight 6:04 AM CDT 9:21 PM CDT
Astronomical Twilight 5:31 AM CDT 9:55 PM CDT
Moon 4:17 PM CDT (4/21) 4:17 AM CDT (4/21)
Length of Visible Light 14h 13m
Length of Day
13h 19m
Waxing Gibbous, 80% of the Moon is Illuminated
Apr 21
Waxing Gibbous
Apr 25
Full
May 2
Last Quarter
May 9
New
May 17
First Quarter

Hourly Weather History & Observations

Time (CDT) Temp. Windchill Dew Point Humidity Pressure Visibility Wind Dir Wind Speed Gust Speed Precip Events Conditions
12:15 AM 55.4 °F - 26.6 °F 33% 29.93 in 10.0 mi SSE 24.2 mph 31.1 mph N/A   Clear
12:35 AM 55.4 °F - 26.6 °F 33% 29.93 in 10.0 mi SSE 27.6 mph 36.8 mph N/A   Clear
12:55 AM 53.6 °F - 26.6 °F 35% 29.93 in 10.0 mi SSE 21.9 mph 32.2 mph N/A   Clear
1:15 AM 53.6 °F - 26.6 °F 35% 29.93 in 10.0 mi SSE 24.2 mph 29.9 mph N/A   Clear
1:35 AM 53.6 °F - 26.6 °F 35% 29.94 in 10.0 mi SSE 21.9 mph 28.8 mph N/A   Clear
4:35 AM 46.4 °F - 28.4 °F 50% 29.99 in 10.0 mi Calm Calm - N/A   Clear
4:55 AM 42.8 °F 40.1 °F 28.4 °F 57% 30.00 in 10.0 mi SSE 4.6 mph - N/A   Clear
5:15 AM 41.0 °F 37.1 °F 28.4 °F 61% 30.00 in 10.0 mi South 5.8 mph - N/A   Clear
5:35 AM 41.0 °F - 28.4 °F 61% 30.01 in 10.0 mi Calm Calm - N/A   Clear
5:55 AM 39.2 °F - 28.4 °F 65% 30.01 in 10.0 mi Calm Calm - N/A   Clear
6:15 AM 37.4 °F - 28.4 °F 70% 30.01 in 10.0 mi Calm Calm - N/A   Clear
6:55 AM 35.6 °F 32.8 °F 26.6 °F 70% 30.03 in 10.0 mi SSW 3.5 mph - N/A   Clear
7:15 AM 35.6 °F 31.7 °F 28.4 °F 75% 30.04 in 10.0 mi SSW 4.6 mph - N/A   Clear
7:35 AM 39.2 °F 35.9 °F 30.2 °F 70% 30.04 in 10.0 mi South 4.6 mph - N/A   Clear
7:55 AM 41.0 °F 39.0 °F 30.2 °F 65% 30.05 in 10.0 mi SSW 3.5 mph - N/A   Clear
8:15 AM 44.6 °F - 32.0 °F 61% 30.06 in 10.0 mi Calm Calm - N/A   Clear
8:35 AM 46.4 °F - 30.2 °F 53% 30.07 in 10.0 mi Calm Calm - N/A   Clear
8:55 AM 48.2 °F - 30.2 °F 50% 30.07 in 10.0 mi South 8.1 mph - N/A   Clear
9:15 AM 50.0 °F - 32.0 °F 50% 30.07 in 10.0 mi SSE 6.9 mph - N/A   Clear
9:35 AM 51.8 °F - 32.0 °F 47% 30.07 in 10.0 mi South 6.9 mph - N/A   Clear
9:55 AM 53.6 °F - 32.0 °F 44% 30.07 in 10.0 mi South 6.9 mph - N/A   Clear
10:15 AM 55.4 °F - 32.0 °F 41% 30.07 in 10.0 mi South 8.1 mph - N/A   Clear
10:35 AM 57.2 °F - 32.0 °F 38% 30.07 in 10.0 mi South 5.8 mph - N/A   Clear
10:55 AM 59.0 °F - 32.0 °F 36% 30.07 in 10.0 mi SSW 6.9 mph - N/A   Clear
11:15 AM 60.8 °F - 32.0 °F 34% 30.07 in 10.0 mi SSW 4.6 mph - N/A   Clear
11:35 AM 62.6 °F - 32.0 °F 32% 30.08 in 10.0 mi South 6.9 mph - N/A   Clear
11:55 AM 62.6 °F - 32.0 °F 32% 30.07 in 10.0 mi SSE 6.9 mph - N/A   Clear
12:15 PM 64.4 °F - 32.0 °F 30% 30.06 in 10.0 mi South 6.9 mph - N/A   Clear
12:35 PM 66.2 °F - 32.0 °F 28% 30.06 in 10.0 mi SSE 4.6 mph - N/A   Clear
12:55 PM 66.2 °F - 30.2 °F 26% 30.05 in 10.0 mi Calm Calm - N/A   Clear
1:15 PM 68.0 °F - 30.2 °F 24% 30.05 in 10.0 mi SSW 4.6 mph - N/A   Clear
1:35 PM 69.8 °F - 32.0 °F 25% 30.04 in 10.0 mi SE 9.2 mph - N/A   Clear
1:55 PM 69.8 °F - 30.2 °F 23% 30.03 in 10.0 mi SE 8.1 mph - N/A   Clear
2:15 PM 71.6 °F - 30.2 °F 22% 30.03 in 10.0 mi SSE 4.6 mph - N/A   Clear
2:35 PM 71.6 °F - 28.4 °F 20% 30.01 in 10.0 mi SSW 4.6 mph - N/A   Clear
2:55 PM 71.6 °F - 30.2 °F 22% 30.01 in 10.0 mi SE 8.1 mph - N/A   Clear
3:15 PM 71.6 °F - 30.2 °F 22% 30.00 in 10.0 mi Calm Calm - N/A   Clear
3:35 PM 73.4 °F - 30.2 °F 20% 29.99 in 10.0 mi South 9.2 mph - N/A   Clear
3:55 PM 73.4 °F - 30.2 °F 20% 29.99 in 10.0 mi East 3.5 mph - N/A   Clear
4:15 PM 73.4 °F - 30.2 °F 20% 29.98 in 10.0 mi South 10.4 mph - N/A   Clear
4:35 PM 73.4 °F - 32.0 °F 22% 29.98 in 10.0 mi SE 11.5 mph 17.3 mph N/A   Scattered Clouds
4:55 PM 73.4 °F - 32.0 °F 22% 29.97 in 10.0 mi SE 12.7 mph 18.4 mph N/A   Scattered Clouds
5:15 PM 73.4 °F - 32.0 °F 22% 29.97 in 10.0 mi South 11.5 mph 17.3 mph N/A   Scattered Clouds
5:35 PM 75.2 °F - 32.0 °F 21% 29.97 in 10.0 mi SSE 11.5 mph 16.1 mph N/A   Clear
5:55 PM 71.6 °F - 32.0 °F 23% 29.97 in 10.0 mi SSE 9.2 mph - N/A   Scattered Clouds
6:15 PM 73.4 °F - 32.0 °F 22% 29.97 in 10.0 mi SSE 6.9 mph 19.6 mph N/A   Scattered Clouds
6:35 PM 71.6 °F - 32.0 °F 23% 29.97 in 10.0 mi SSE 16.1 mph 20.7 mph N/A   Clear
7:15 PM 71.6 °F - 32.0 °F 23% 29.97 in 10.0 mi SSE 16.1 mph 23.0 mph N/A   Clear
7:35 PM 69.8 °F - 33.8 °F 27% 29.98 in 10.0 mi SSE 16.1 mph 21.9 mph N/A   Scattered Clouds
7:55 PM 68.0 °F - 33.8 °F 28% 29.98 in 10.0 mi SE 16.1 mph 19.6 mph N/A   Clear
8:15 PM 68.0 °F - 33.8 °F 28% 29.97 in 10.0 mi SE 15.0 mph 19.6 mph N/A   Clear
8:35 PM 64.4 °F - 33.8 °F 32% 29.98 in 10.0 mi SE 13.8 mph - N/A   Clear
8:55 PM 62.6 °F - 33.8 °F 34% 29.98 in 10.0 mi SE 13.8 mph - N/A   Clear
9:15 PM 62.6 °F - 35.6 °F 37% 29.98 in 10.0 mi SE 17.3 mph 21.9 mph N/A   Clear
9:35 PM 62.6 °F - 35.6 °F 37% 29.98 in 10.0 mi SE 18.4 mph - N/A   Clear
9:55 PM 60.8 °F - 37.4 °F 42% 29.98 in 10.0 mi SE 20.7 mph 27.6 mph N/A   Clear
10:15 PM 60.8 °F - 41.0 °F 48% 29.98 in 10.0 mi SE 21.9 mph 27.6 mph N/A   Clear
10:35 PM 60.8 °F - 41.0 °F 48% 29.97 in 10.0 mi SE 25.3 mph 32.2 mph N/A   Clear
10:55 PM 59.0 °F - 41.0 °F 51% 29.98 in 10.0 mi SE 21.9 mph 29.9 mph N/A   Clear
11:15 PM 59.0 °F - 42.8 °F 55% 29.97 in 10.0 mi SE 27.6 mph 32.2 mph N/A   Clear
11:35 PM 59.0 °F - 42.8 °F 55% 29.96 in 10.0 mi SE 27.6 mph 35.7 mph N/A   Clear
11:55 PM 57.2 °F - 44.6 °F 63% 29.97 in 10.0 mi SE 29.9 mph 35.7 mph N/A   Clear